W8CEN Weather Reports


time (UTC)temp
F
wind
direction
speed
knots
gust
knots
rain 1hr
in
rain 24hr
in
rain mn
in
humidity
%
barometer
mb
20260508175318 62 219 2.6 3.5 0.00 0.00 0.00 56 989.5
20260508174816 62 225 1.7 2.6 0.00 0.00 0.00 57 989.4
20260508174313 62 243 3.5 5.2 0.00 0.00 0.00 58 989.5
20260508173809 62 251 1.7 1.7 0.00 0.00 0.00 57 989.5
20260508173307 62 246 1.7 2.6 0.00 0.00 0.00 60 989.5
20260508172802 62 251 1.7 1.7 0.00 0.00 0.00 59 989.7
20260508172300 62 336 0.9 0.9 0.00 0.00 0.00 59 989.7
20260508171755 63 235 1.7 2.6 0.00 0.00 0.00 57 989.9
20260508171252 64 230 1.7 2.6 0.00 0.00 0.00 56 989.9
20260508170749 64 33 1.7 1.7 0.00 0.00 0.00 58 990.0
20260508170247 64 256 1.7 2.6 0.00 0.00 0.00 57 990.0
20260508165744 62 231 0.9 1.7 0.00 0.00 0.00 64 990.1
20260508165241 62 216 1.7 1.7 0.00 0.00 0.00 62 990.2
20260508164737 62 255 2.6 2.6 0.00 0.00 0.00 60 990.6
20260508164234 62 253 1.7 1.7 0.00 0.00 0.00 62 990.5
20260508163732 62 234 2.6 3.5 0.00 0.00 0.00 61 990.7
20260508163229 61 293 0.9 0.9 0.00 0.00 0.00 64 990.7
20260508162725 60 238 1.7 1.7 0.00 0.00 0.00 65 991.1
20260508162222 59 239 2.6 2.6 0.00 0.00 0.00 65 990.7
20260508161719 58 6 0.0 0.9 0.00 0.00 0.00 69 990.9
20260508161216 59 240 1.7 2.6 0.00 0.00 0.00 64 991.2
20260508160714 58 227 2.6 2.6 0.00 0.00 0.00 66 991.0
20260508160212 58 300 2.6 2.6 0.00 0.00 0.00 66 990.9
20260508155709 58 295 0.9 1.7 0.00 0.00 0.00 67 991.0
20260508155206 58 244 1.7 1.7 0.00 0.00 0.00 66 990.8
20260508154703 58 291 0.9 1.7 0.00 0.00 0.00 67 991.0
20260508154159 59 264 1.7 1.7 0.00 0.00 0.00 65 991.0
20260508153656 59 95 0.9 1.7 0.00 0.00 0.00 65 990.8
20260508153153 59 191 1.7 2.6 0.00 0.00 0.00 66 990.9
20260508152649 59 306 0.0 1.7 0.00 0.00 0.00 66 991.0
20260508152145 57 355 0.0 0.0 0.00 0.00 0.00 71 991.0
20260508151642 57 247 1.7 2.6 0.00 0.00 0.00 67 990.9
20260508151139 57 255 1.7 1.7 0.00 0.00 0.00 67 990.9
20260508150636 57 275 0.9 1.7 0.00 0.00 0.00 66 990.9
20260508150133 57 250 1.7 1.7 0.00 0.00 0.00 65 991.0
20260508145628 57 280 1.7 1.7 0.00 0.00 0.00 67 991.1
20260508145125 56 256 1.7 1.7 0.00 0.00 0.00 69 991.1
20260508144623 57 261 1.7 2.6 0.00 0.00 0.00 67 991.2
20260508144120 57 269 0.9 0.9 0.00 0.00 0.00 66 990.9
20260508143617 58 339 1.7 1.7 0.00 0.00 0.00 65 990.9
20260508143114 58 297 0.0 0.9 0.00 0.00 0.00 66 991.1
20260508142610 59 229 0.0 0.9 0.00 0.00 0.00 65 991.1
20260508142107 58 225 1.7 2.6 0.00 0.00 0.00 64 991.1
20260508141604 58 331 1.7 1.7 0.00 0.00 0.00 65 991.0
20260508141102 57 256 3.5 5.2 0.00 0.00 0.00 67 991.3
20260508140559 56 246 0.9 0.9 0.00 0.00 0.00 69 991.1
20260508140055 56 346 1.7 2.6 0.00 0.00 0.00 69 991.0
20260508135550 57 247 1.7 1.7 0.00 0.00 0.00 67 991.0
20260508135047 57 290 1.7 2.6 0.00 0.00 0.00 67 991.3
20260508134544 56 267 0.9 0.9 0.00 0.00 0.00 69 991.4
20260508134041 55 261 1.7 1.7 0.00 0.00 0.00 70 991.3
20260508133537 55 268 0.9 0.9 0.00 0.00 0.00 70 991.3
20260508133035 56 237 1.7 2.6 0.00 0.00 0.00 68 991.3
20260508132533 57 239 3.5 5.2 0.00 0.00 0.00 66 991.5
20260508132029 57 215 0.9 0.9 0.00 0.00 0.00 67 991.2
20260508131524 55 280 0.0 0.0 0.00 0.00 0.00 71 991.2
20260508131021 54 291 0.9 1.7 0.00 0.00 0.00 71 991.3
20260508130519 55 222 3.5 3.5 0.00 0.00 0.00 69 991.4
20260508130015 55 295 2.6 2.6 0.00 0.00 0.00 69 991.3
20260508125511 54 247 0.9 0.9 0.00 0.00 0.00 70 991.5
20260508125008 54 314 1.7 1.7 0.00 0.00 0.00 71 991.2
20260508124506 54 244 2.6 2.6 0.00 0.00 0.00 70 991.5
20260508124003 53 261 1.7 2.6 0.00 0.00 0.00 71 991.3
20260508123502 53 262 0.9 1.7 0.00 0.00 0.00 72 991.2
20260508122958 53 216 2.6 5.2 0.00 0.00 0.00 72 991.5
20260508122455 52 352 0.0 0.9 0.00 0.00 0.00 75 991.2
20260508121952 51 231 2.6 2.6 0.00 0.00 0.00 76 991.2
20260508121450 51 331 2.6 2.6 0.00 0.00 0.00 75 991.2
20260508120948 50 245 1.7 1.7 0.00 0.00 0.00 77 991.0
20260508120445 50 254 0.9 1.7 0.00 0.00 0.00 78 990.9
20260508115943 49 259 1.7 1.7 0.00 0.00 0.00 78 990.8
20260508115441 49 241 1.7 2.6 0.00 0.00 0.00 80 990.8
20260508114937 48 288 0.9 0.9 0.00 0.00 0.00 82 990.7
20260508114434 48 262 0.9 0.9 0.00 0.00 0.00 81 990.4
20260508113930 47 264 0.9 0.9 0.00 0.00 0.00 82 990.3
20260508113428 47 250 0.9 1.7 0.00 0.00 0.00 82 990.4
20260508112925 47 235 0.9 0.9 0.00 0.00 0.00 82 990.5
20260508112422 47 245 0.9 1.7 0.00 0.00 0.00 82 990.5
20260508111918 47 231 1.7 1.7 0.00 0.00 0.00 82 990.6
20260508111416 47 246 2.6 2.6 0.00 0.00 0.00 82 990.3
20260508110913 47 280 0.9 0.9 0.00 0.00 0.00 82 990.1
20260508110411 47 243 0.9 0.9 0.00 0.00 0.00 81 990.1
20260508105910 47 267 0.9 0.9 0.00 0.00 0.00 81 990.2
20260508105407 48 255 0.9 0.9 0.00 0.00 0.00 81 990.0
20260508104904 48 241 1.7 1.7 0.00 0.00 0.00 81 990.0
20260508104401 48 249 1.7 1.7 0.00 0.00 0.00 81 990.3
20260508103858 48 242 0.9 0.9 0.00 0.00 0.00 81 989.9
20260508103354 48 260 0.9 1.7 0.00 0.00 0.00 81 989.9
20260508102852 48 247 0.9 0.9 0.00 0.00 0.00 80 990.0
20260508102350 48 250 0.9 0.9 0.00 0.00 0.00 81 990.2
20260508101847 48 279 0.0 0.9 0.00 0.00 0.00 81 990.2
20260508101344 48 256 0.9 0.9 0.00 0.00 0.00 81 990.2
20260508100842 48 244 0.9 0.9 0.00 0.00 0.00 81 990.1
20260508100341 48 277 0.9 0.9 0.00 0.00 0.00 81 990.2
20260508095836 48 253 0.9 0.9 0.00 0.00 0.00 81 990.1
20260508095334 48 260 0.0 0.9 0.00 0.00 0.00 82 990.1
20260508094830 48 250 0.0 0.0 0.00 0.00 0.00 82 990.1
20260508094327 47 271 1.7 2.6 0.00 0.00 0.00 82 990.0
20260508093825 47 272 1.7 1.7 0.00 0.00 0.00 83 989.9
20260508093322 47 245 0.9 1.7 0.00 0.00 0.00 83 990.0
20260508092819 46 255 0.0 0.9 0.00 0.00 0.00 83 990.1
20260508092317 46 244 0.9 0.9 0.00 0.00 0.00 84 990.0
20260508091815 46 267 0.9 0.9 0.00 0.00 0.00 84 990.3
20260508091311 46 246 0.9 0.9 0.00 0.00 0.00 85 990.1
20260508090809 46 241 0.9 0.9 0.00 0.00 0.00 85 990.0
20260508090308 46 275 0.9 0.9 0.00 0.00 0.00 85 990.3
20260508085803 46 297 0.0 0.0 0.00 0.00 0.00 85 990.2
20260508085300 46 260 0.9 0.9 0.00 0.00 0.00 86 990.3
20260508084755 46 240 0.9 0.9 0.00 0.00 0.00 86 990.1
20260508084253 46 246 0.9 0.9 0.00 0.00 0.00 86 990.1
20260508083751 46 244 0.9 0.9 0.00 0.00 0.00 86 990.1
20260508083248 46 254 0.0 0.9 0.00 0.00 0.00 85 990.2
20260508082748 46 287 0.0 0.9 0.00 0.00 0.00 85 990.2
20260508082246 47 244 1.7 1.7 0.00 0.00 0.00 85 990.1
20260508081743 47 234 0.9 0.9 0.00 0.00 0.00 85 990.3
20260508081240 47 255 0.9 0.9 0.00 0.00 0.00 85 990.3
20260508080737 47 260 0.9 1.7 0.00 0.00 0.00 84 990.2
20260508080235 47 241 0.9 0.9 0.00 0.00 0.00 84 990.3
20260508075731 47 237 1.7 1.7 0.00 0.00 0.00 84 990.3
20260508075228 47 251 0.0 0.0 0.00 0.00 0.00 84 990.3
20260508074726 47 237 1.7 1.7 0.00 0.00 0.00 84 990.3
20260508074223 47 253 0.0 0.9 0.00 0.00 0.00 84 990.6
20260508073719 47 229 0.9 0.9 0.00 0.00 0.00 83 990.4
20260508073218 47 256 1.7 1.7 0.00 0.00 0.00 83 990.5
20260508072713 47 237 0.9 0.9 0.00 0.00 0.00 82 990.3
20260508072210 47 247 0.9 0.9 0.00 0.00 0.00 82 990.5
20260508071708 47 242 1.7 1.7 0.00 0.00 0.00 82 990.5
20260508071206 46 226 1.7 1.7 0.00 0.00 0.00 82 990.5
20260508070703 46 249 0.9 0.9 0.00 0.00 0.00 82 990.7
20260508070202 46 252 0.0 0.9 0.00 0.00 0.00 82 990.4
20260508065658 46 250 1.7 1.7 0.00 0.00 0.00 82 990.7
20260508065156 46 241 0.9 0.9 0.00 0.00 0.00 81 990.6
20260508064654 47 239 0.9 0.9 0.00 0.00 0.00 81 990.8
20260508064152 47 243 0.9 1.7 0.00 0.00 0.00 81 990.8
20260508063649 47 257 0.9 0.9 0.00 0.00 0.00 80 990.9
20260508063147 47 14 0.9 1.7 0.00 0.00 0.00 80 990.7
20260508062644 47 244 1.7 1.7 0.00 0.00 0.00 80 990.8
20260508062141 47 268 0.9 1.7 0.00 0.00 0.00 79 990.9
20260508061638 47 243 0.9 0.9 0.00 0.00 0.00 79 990.7
20260508061135 48 260 1.7 1.7 0.00 0.00 0.00 78 990.7
20260508060632 48 240 1.7 2.6 0.00 0.00 0.00 77 990.8
20260508060129 48 242 0.9 1.7 0.00 0.00 0.00 76 990.8
20260508055625 48 233 1.7 2.6 0.00 0.00 0.00 76 990.9
20260508055122 48 240 1.7 2.6 0.00 0.00 0.00 75 990.8
20260508054618 48 254 1.7 1.7 0.00 0.00 0.00 76 991.1
20260508054116 48 273 0.9 0.9 0.00 0.00 0.00 76 991.0
20260508053612 48 257 0.9 0.9 0.00 0.00 0.00 75 990.9
20260508053111 49 279 1.7 1.7 0.00 0.00 0.00 74 991.0
20260508052607 49 243 1.7 1.7 0.00 0.00 0.00 73 990.9
20260508052105 49 239 0.9 1.7 0.00 0.00 0.00 72 991.1
20260508051601 49 259 1.7 1.7 0.00 0.00 0.00 71 991.2
20260508051056 49 226 1.7 1.7 0.00 0.00 0.00 70 990.9
20260508050552 49 222 1.7 2.6 0.00 0.00 0.00 70 990.9
20260508050050 48 251 0.9 1.7 0.00 0.00 0.00 72 990.8
20260508045546 48 236 0.9 0.9 0.00 0.00 0.00 73 990.8
20260508045044 48 256 0.9 1.7 0.00 0.00 0.00 74 991.1
20260508044541 48 242 0.9 0.9 0.00 0.00 0.00 73 990.9
20260508044037 48 275 0.0 0.9 0.00 0.00 0.00 73 990.9
20260508043533 48 238 0.9 0.9 0.00 0.00 0.00 72 991.2
20260508043031 48 291 0.0 0.0 0.00 0.00 0.00 72 991.0
20260508042527 49 248 0.0 0.9 0.00 0.00 0.00 72 991.1
20260508042025 49 265 0.0 0.0 0.00 0.00 0.00 72 991.1
20260508041521 49 306 0.0 0.0 0.00 0.00 0.00 71 991.1
20260508041018 49 292 0.0 0.0 0.00 0.00 0.00 71 991.1
20260508040515 49 260 0.0 0.0 0.00 0.00 0.00 71 991.1
20260508040013 49 249 0.0 0.9 0.00 0.00 0.00 70 991.0
20260508035509 49 246 0.9 0.9 0.00 0.00 0.00 69 991.1
20260508035006 49 351 0.0 0.0 0.00 0.00 0.00 69 991.1
20260508034503 50 261 0.0 0.0 0.00 0.00 0.00 68 991.1
20260508034000 50 239 0.0 0.9 0.00 0.00 0.00 67 991.1
20260508033458 50 242 0.9 0.9 0.00 0.00 0.00 66 991.2
20260508032955 50 241 0.0 0.9 0.00 0.00 0.00 65 991.2
20260508032452 50 235 1.7 1.7 0.00 0.00 0.00 64 991.2
20260508031949 50 240 0.9 1.7 0.00 0.00 0.00 64 991.3
20260508031447 50 263 0.9 0.9 0.00 0.00 0.00 63 991.4
20260508030942 50 265 0.9 0.9 0.00 0.00 0.00 63 991.6
20260508030439 50 240 2.6 2.6 0.00 0.00 0.00 62 991.4
20260508025937 50 259 1.7 1.7 0.00 0.00 0.00 63 991.3
20260508025433 50 269 0.9 0.9 0.00 0.00 0.00 63 991.3
20260508024930 50 237 1.7 1.7 0.00 0.00 0.00 62 991.4
20260508024426 51 258 0.9 0.9 0.00 0.00 0.00 62 991.5
20260508023923 51 244 1.7 2.6 0.00 0.00 0.00 62 991.6
20260508023420 51 229 1.7 1.7 0.00 0.00 0.00 61 991.5
20260508022917 51 247 1.7 1.7 0.00 0.00 0.00 61 991.6
20260508022413 51 251 1.7 2.6 0.00 0.00 0.00 60 991.6
20260508021910 51 265 1.7 2.6 0.00 0.00 0.00 59 991.5
20260508021406 51 241 1.7 1.7 0.00 0.00 0.00 59 991.6
20260508020901 51 244 2.6 3.5 0.00 0.00 0.00 59 991.6
20260508020400 52 249 3.5 3.5 0.00 0.00 0.00 58 991.6
20260508015857 52 227 2.6 2.6 0.00 0.00 0.00 58 991.4
20260508015354 52 244 2.6 2.6 0.00 0.00 0.00 56 991.3
20260508014850 52 254 2.6 3.5 0.00 0.00 0.00 56 991.4
20260508014348 52 237 3.5 3.5 0.00 0.00 0.00 55 991.5
20260508013843 52 261 2.6 2.6 0.00 0.00 0.00 55 991.3
20260508013340 52 259 2.6 3.5 0.00 0.00 0.00 54 991.4
20260508012837 53 243 3.5 3.5 0.00 0.00 0.00 53 991.2
20260508012334 53 299 1.7 3.5 0.00 0.00 0.00 53 991.0
20260508011832 53 250 2.6 5.2 0.00 0.00 0.00 52 991.1
20260508011330 53 241 3.5 5.2 0.00 0.00 0.00 51 991.1
20260508010827 53 280 2.6 3.5 0.00 0.00 0.00 51 991.0
20260508010324 54 246 1.7 2.6 0.00 0.00 0.00 49 991.0
20260508005821 54 251 5.2 7.0 0.00 0.00 0.00 46 990.8
20260508005318 55 254 2.6 2.6 0.00 0.00 0.00 45 990.8
20260508004815 55 359 4.3 5.2 0.00 0.00 0.00 44 990.8
20260508004310 55 334 2.6 3.5 0.00 0.00 0.00 42 990.6
20260508003807 55 237 1.7 2.6 0.00 0.00 0.00 42 990.8
20260508003305 55 263 0.9 0.9 0.00 0.00 0.00 42 990.6
20260508002801 55 253 0.9 0.9 0.00 0.00 0.00 43 990.6
20260508002258 55 243 3.5 3.5 0.00 0.00 0.00 43 990.6
20260508001754 55 255 0.9 0.9 0.00 0.00 0.00 44 990.5
20260508001249 55 253 0.9 0.9 0.00 0.00 0.00 44 990.3
20260508000746 55 238 0.9 0.9 0.00 0.00 0.00 43 990.6
20260508000243 55 230 0.9 0.9 0.00 0.00 0.00 43 990.5
20260507235739 56 341 0.0 0.0 0.00 0.00 0.00 44 990.4
20260507235237 56 280 0.0 0.0 0.00 0.00 0.00 41 990.3
20260507234734 56 333 0.0 0.0 0.00 0.00 0.00 42 990.2
20260507234230 56 285 0.9 0.9 0.00 0.00 0.00 41 990.5
20260507233727 56 211 0.0 0.0 0.00 0.00 0.00 38 990.4
20260507233225 57 253 0.0 0.9 0.00 0.00 0.00 38 990.4
20260507232722 58 176 0.0 0.9 0.00 0.00 0.00 37 990.4
20260507232219 58 235 1.7 1.7 0.00 0.00 0.00 36 990.4
20260507231715 58 267 0.0 0.0 0.00 0.00 0.00 39 990.4
20260507231213 58 239 0.9 0.9 0.00 0.00 0.00 38 990.4
20260507230709 58 347 0.0 0.0 0.00 0.00 0.00 36 990.5
20260507230207 59 293 0.0 0.0 0.00 0.00 0.00 37 990.6
20260507225706 60 319 0.0 0.9 0.00 0.00 0.00 36 990.5
20260507225203 61 338 0.0 0.0 0.00 0.00 0.00 36 990.5
20260507224658 61 282 0.0 0.9 0.00 0.00 0.00 34 990.6
20260507224155 61 335 0.0 0.9 0.00 0.00 0.00 36 990.5
20260507223651 62 251 1.7 2.6 0.00 0.00 0.00 31 990.6
20260507223148 61 306 1.7 1.7 0.00 0.00 0.00 34 990.8
20260507222645 61 292 0.0 0.0 0.00 0.00 0.00 35 990.7
20260507222141 62 10 0.0 0.9 0.00 0.00 0.00 31 990.9
20260507221638 62 248 0.9 1.7 0.00 0.00 0.00 33 990.8
20260507221134 61 335 0.0 0.9 0.00 0.00 0.00 33 990.7
20260507220632 62 333 1.7 2.6 0.00 0.00 0.00 33 990.6
20260507220130 62 340 0.0 0.0 0.00 0.00 0.00 32 990.6
20260507215625 62 320 0.9 0.9 0.00 0.00 0.00 32 990.6
20260507215123 62 241 0.9 0.9 0.00 0.00 0.00 33 990.6
20260507214620 61 255 1.7 2.6 0.00 0.00 0.00 36 990.7
20260507214116 60 287 0.9 0.9 0.00 0.00 0.00 34 990.5
20260507213612 61 240 0.9 0.9 0.00 0.00 0.00 34 990.4
20260507213110 62 275 1.7 1.7 0.00 0.00 0.00 35 990.5
20260507212606 60 82 0.9 1.7 0.00 0.00 0.00 36 990.8
20260507212102 60 323 0.9 0.9 0.00 0.00 0.00 38 990.8
20260507211559 61 299 0.9 0.9 0.00 0.00 0.00 36 990.7
20260507211055 60 282 1.7 1.7 0.00 0.00 0.00 35 990.6
20260507210553 60 213 1.7 2.6 0.00 0.00 0.00 35 990.7
20260507210049 60 241 0.9 0.9 0.00 0.00 0.00 34 990.6
20260507205546 62 242 2.6 2.6 0.00 0.00 0.00 32 990.7
20260507205042 60 108 1.7 2.6 0.00 0.00 0.00 39 990.8
20260507204538 62 232 1.7 1.7 0.00 0.00 0.00 34 990.6
20260507204036 61 302 0.9 1.7 0.00 0.00 0.00 37 990.5
20260507203534 60 261 1.7 1.7 0.00 0.00 0.00 35 990.7
20260507203031 60 321 0.0 0.9 0.00 0.00 0.00 34 990.6
20260507202527 61 325 1.7 2.6 0.00 0.00 0.00 35 990.8
20260507202023 60 300 0.9 0.9 0.00 0.00 0.00 34 990.9
20260507201519 60 334 1.7 1.7 0.00 0.00 0.00 36 990.7
20260507201015 60 251 0.9 1.7 0.00 0.00 0.00 37 990.8
20260507200511 59 317 1.7 1.7 0.00 0.00 0.00 36 990.9
20260507200007 59 332 1.7 1.7 0.00 0.00 0.00 35 990.9
20260507195505 59 278 0.9 1.7 0.00 0.00 0.00 40 990.9
20260507195002 59 342 1.7 2.6 0.00 0.00 0.00 35 990.8
20260507194458 60 309 1.7 1.7 0.00 0.00 0.00 36 990.9
20260507193954 61 240 1.7 1.7 0.00 0.00 0.00 33 990.8
20260507193452 63 318 2.6 2.6 0.00 0.00 0.00 31 990.7
20260507192948 62 257 0.9 1.7 0.00 0.00 0.00 34 990.9
20260507192444 63 253 1.7 1.7 0.00 0.00 0.00 32 991.0
20260507191941 61 247 1.7 1.7 0.00 0.00 0.00 38 990.9
20260507191437 61 239 4.3 5.2 0.00 0.00 0.00 34 990.7
20260507190934 60 270 1.7 2.6 0.00 0.00 0.00 37 991.2
20260507190432 62 235 1.7 2.6 0.00 0.00 0.00 35 991.1
20260507185931 62 258 0.9 0.9 0.00 0.00 0.00 35 991.0
20260507185427 62 313 0.9 1.7 0.00 0.00 0.00 34 991.3
20260507184924 62 293 1.7 1.7 0.00 0.00 0.00 36 991.2
20260507184422 60 275 1.7 1.7 0.00 0.00 0.00 34 991.1
20260507183920 60 57 1.7 3.5 0.00 0.00 0.00 41 991.4
20260507183416 59 279 1.7 2.6 0.00 0.00 0.00 37 991.2
20260507182914 59 292 3.5 5.2 0.00 0.00 0.00 35 991.2
20260507182409 59 259 2.6 3.5 0.00 0.00 0.00 34 991.3
20260507181906 59 261 1.7 2.6 0.00 0.00 0.00 37 991.2
20260507181401 59 243 4.3 5.2 0.00 0.00 0.00 36 991.1
20260507180859 60 229 4.3 5.2 0.00 0.00 0.00 35 991.2
20260507180355 60 342 0.9 0.9 0.00 0.00 0.00 39 991.2
20260507175851 60 243 2.6 3.5 0.00 0.00 0.00 38 991.2